FENGYUN 1C DEB

Satellite information

Favourite Embed

Satellite Type and Status

DEBRISIN ORBIT

Key statistics

Satellite FENGYUN 1C DEB at a glance.

Uptime

9665

Days in orbit

Revolutions

≈ 14.3

Per day

Orbit

SSO

Sun Synchronous Orbit

Inclination

99.1

Latest

Satellite identification and parameters

Extended collection of information and parameters for FENGYUN 1C DEB.

Object identification

Identified? True

Debris? True

Object name: FENGYUN 1C DEB

International designator: 1999-025CES

Object number (NORAD): 31743

Object ID (CCSDS): 31743

Country: PEOPLES REPUBLIC OF CHINA (PRC)

Current information (Y/N): Y

RCS size: SMALL

Orbital parameters

Period: 100.659 minutes

Inclination: 99.1361 deg

SMA: 7167.959 km

Apoapsis: 818.775 km

Periapsis: 760.874 km

RAAN: 222.6773 deg

Eccentricy: 0.0040389

Argument of periapsis: 5.2001 deg

Mean anomaly: 146.07 deg

Mean motion: 14.30571126 rev/day

Mean motion (dot): 0.00007864 rev/day2

B* drag term: 0.0030028 1/REarth

Two-line elements (TLE)

Creation date: Oct. 24, 2025, 9:16 p.m.

Reference frame: TEME

Reference center: EARTH

Epoch: Oct. 24, 2025, 6:58 a.m. UTC

TLE line 0: 0 FENGYUN 1C DEB

TLE line 1: 1 31743U 99025CES 25297.29062152 .00007864 00000-0 30028-2 0 9995

TLE line 2: 2 31743 99.1361 222.6773 0040389 5.2001 146.0700 14.30571126949336

Live tracking on map

Real-time ground track for satellite FENGYUN 1C DEB.

In-orbit conjunctions

A list of the most updated potential collisions computed for object FENGYUN 1C DEB.

Target Orbit TCA Probability of collision Miss distance Type
DMSP 5D-3 F18 DEB SSO 2025-10-16 13:50:10 0.0001379889 117.0 (m) DEBRIS
SL-12 R/B(AUX MOTOR) LEO 2025-06-19 05:07:28 0.0003598034 113.0 (m) ROCKET BODY
PEGASUS R/B(2) LEO 2025-01-13 11:37:45 0.0005636873 129.0 (m) ROCKET BODY
CZ-6A DEB LEO 2024-12-21 13:32:58 0.0002548624 842.0 (m) DEBRIS

Associated space launch

Chinese polar orbiting meteorological satellite

FENGYUN 1C DEB was lifted into orbit during the mission ‘Long March 4B | Feng Yun 1C’, on board a Long March 4B space rocket.

The launch took place on May 10, 1999, 1:33 a.m. from Launch Complex 7.

For more information about the launch, click the button.

Launch to space Long March 4B | Feng Yun 1C
Long March 4B | Feng Yun 1C

Agency: N/A

Status: Launch Successful

Launch date: May 10, 1999, 1:33 a.m. UTC

Rocket: Long March 4B

Launch pad: Launch Complex 7

Location: Taiyuan Satellite Launch Center, People's Republic of China

...

Latest news about this satellite

There are no fresh news available about this satellite. Check back as we update our databases every day.


Newsletter sign-up

Weekly statistics, charts and insights to help you stay on top of the space industry.